| time (UTC) | temp F | wind direction | speed knots | gust knots | rain 1hr in | rain 24hr in | rain mn in | humidity % | barometer mb |
| 20260504100404 | 41 | 272 | 0.0 | 0.0 | 0.00 | 0.00 | 0.00 | 78 | 1009.9 |
| 20260504081404 | 45 | 272 | 0.0 | 2.6 | 0.00 | 0.00 | 0.00 | 73 | 1010.0 |
| 20260504070404 | 45 | 272 | 0.0 | 0.0 | 0.00 | 0.00 | 0.00 | 71 | 1010.1 |
| 20260504050404 | 46 | 272 | 0.0 | 0.0 | 0.00 | 0.00 | 0.00 | 69 | 1010.5 |
| 20260504045404 | 46 | 272 | 0.0 | 0.0 | 0.00 | 0.00 | 0.00 | 68 | 1010.7 |
| 20260504044404 | 46 | 272 | 0.0 | 0.0 | 0.00 | 0.00 | 0.00 | 68 | 1010.8 |
| 20260504043403 | 45 | 272 | 0.0 | 0.0 | 0.00 | 0.00 | 0.00 | 64 | 1011.1 |
| 20260504042404 | 45 | 272 | 0.0 | 0.0 | 0.00 | 0.00 | 0.00 | 64 | 1011.2 |
| 20260504041404 | 45 | 272 | 0.0 | 0.9 | 0.00 | 0.00 | 0.00 | 64 | 1011.2 |
| 20260504040404 | 45 | 272 | 0.0 | 0.0 | 0.00 | 0.00 | 0.00 | 63 | 1011.2 |
| 20260504035404 | 45 | 272 | 0.0 | 0.0 | 0.00 | 0.00 | 0.00 | 63 | 1011.1 |
| 20260504034404 | 45 | 272 | 0.0 | 0.9 | 0.00 | 0.00 | 0.00 | 63 | 1011.0 |
| 20260504033404 | 45 | 272 | 0.0 | 0.0 | 0.00 | 0.00 | 0.00 | 63 | 1010.9 |
| 20260504032404 | 45 | 272 | 0.0 | 0.9 | 0.00 | 0.00 | 0.00 | 63 | 1010.8 |
| 20260504031404 | 45 | 272 | 0.0 | 0.0 | 0.00 | 0.00 | 0.00 | 62 | 1010.7 |
| 20260504030404 | 45 | 272 | 0.0 | 0.0 | 0.00 | 0.00 | 0.00 | 61 | 1010.7 |
| 20260504023404 | 46 | 272 | 0.0 | 0.0 | 0.00 | 0.00 | 0.00 | 57 | 1010.7 |
| 20260504022404 | 46 | 272 | 0.0 | 0.0 | 0.00 | 0.00 | 0.00 | 55 | 1010.7 |
| 20260504020404 | 48 | 272 | 0.0 | 0.0 | 0.00 | 0.00 | 0.00 | 54 | 1010.8 |
| 20260504015404 | 49 | 272 | 0.0 | 0.0 | 0.00 | 0.00 | 0.00 | 52 | 1010.6 |
| 20260504012404 | 50 | 272 | 0.0 | 0.9 | 0.00 | 0.00 | 0.00 | 47 | 1010.6 |
| 20260504010404 | 51 | 272 | 0.9 | 5.2 | 0.00 | 0.00 | 0.00 | 47 | 1010.4 |
| 20260504005404 | 51 | 272 | 1.7 | 7.0 | 0.00 | 0.00 | 0.00 | 46 | 1010.3 |
| 20260504004404 | 51 | 274 | 1.7 | 11.3 | 0.00 | 0.00 | 0.00 | 45 | 1010.3 |
| 20260504001404 | 52 | 268 | 0.9 | 10.4 | 0.00 | 0.00 | 0.00 | 43 | 1010.0 |
| 20260504000404 | 53 | 265 | 2.6 | 11.3 | 0.00 | 0.00 | 0.00 | 42 | 1010.0 |
| 20260503235404 | 53 | 221 | 2.6 | 13.0 | 0.00 | 0.00 | 0.00 | 41 | 1009.8 |
| 20260503234404 | 53 | 273 | 4.3 | 13.9 | 0.00 | 0.00 | 0.00 | 41 | 1009.8 |
| 20260503233405 | 53 | 268 | 5.2 | 20.0 | 0.00 | 0.00 | 0.00 | 38 | 1009.5 |
| 20260503232404 | 54 | 267 | 5.2 | 14.8 | 0.00 | 0.00 | 0.00 | 38 | 1009.4 |
| 20260503231404 | 54 | 258 | 2.6 | 14.8 | 0.00 | 0.00 | 0.00 | 36 | 1009.3 |
| 20260503230405 | 55 | 249 | 6.1 | 14.8 | 0.00 | 0.00 | 0.00 | 35 | 1009.1 |
| 20260503225404 | 55 | 259 | 4.3 | 12.2 | 0.00 | 0.00 | 0.00 | 34 | 1009.0 |
| 20260503224405 | 55 | 277 | 5.2 | 17.4 | 0.00 | 0.00 | 0.00 | 34 | 1008.9 |
| 20260503223404 | 55 | 266 | 2.6 | 17.4 | 0.00 | 0.00 | 0.00 | 34 | 1008.9 |
| 20260503222404 | 56 | 272 | 2.6 | 17.4 | 0.00 | 0.00 | 0.00 | 34 | 1008.8 |
| 20260503221404 | 56 | 292 | 7.0 | 14.8 | 0.00 | 0.00 | 0.00 | 31 | 1008.8 |
| 20260503220404 | 56 | 261 | 3.5 | 13.9 | 0.00 | 0.00 | 0.00 | 31 | 1008.8 |
| 20260503215404 | 56 | 264 | 3.5 | 13.9 | 0.00 | 0.00 | 0.00 | 32 | 1008.8 |
| 20260503214404 | 56 | 252 | 4.3 | 17.4 | 0.00 | 0.00 | 0.00 | 32 | 1008.9 |
| 20260503213404 | 56 | 244 | 5.2 | 13.9 | 0.00 | 0.00 | 0.00 | 31 | 1008.9 |
| 20260503212404 | 56 | 272 | 6.1 | 12.2 | 0.00 | 0.00 | 0.00 | 30 | 1008.9 |
| 20260503211404 | 56 | 275 | 6.1 | 17.4 | 0.00 | 0.00 | 0.00 | 32 | 1008.9 |
| 20260503210404 | 55 | 294 | 4.3 | 17.4 | 0.00 | 0.00 | 0.00 | 33 | 1008.9 |
| 20260503205405 | 55 | 275 | 6.1 | 17.4 | 0.00 | 0.00 | 0.00 | 33 | 1008.9 |
| 20260503204404 | 55 | 234 | 6.1 | 19.1 | 0.00 | 0.00 | 0.00 | 34 | 1009.0 |
| 20260503203404 | 55 | 338 | 6.1 | 17.4 | 0.00 | 0.00 | 0.00 | 35 | 1009.2 |
| 20260503201404 | 56 | 249 | 2.6 | 17.4 | 0.00 | 0.00 | 0.00 | 37 | 1009.2 |
| 20260503195404 | 56 | 345 | 3.5 | 17.4 | 0.00 | 0.00 | 0.00 | 39 | 1009.4 |
| 20260503194404 | 55 | 286 | 2.6 | 10.4 | 0.00 | 0.00 | 0.00 | 38 | 1009.6 |
| 20260503193404 | 55 | 289 | 1.7 | 4.3 | 0.00 | 0.00 | 0.00 | 44 | 1009.6 |
| 20260503191404 | 53 | 261 | 4.3 | 13.0 | 0.00 | 0.00 | 0.00 | 42 | 1010.0 |
| 20260503190404 | 53 | 340 | 1.7 | 13.0 | 0.00 | 0.00 | 0.00 | 40 | 1010.2 |
| 20260503185404 | 53 | 273 | 4.3 | 13.0 | 0.00 | 0.00 | 0.00 | 41 | 1010.3 |
| 20260503184404 | 53 | 311 | 5.2 | 17.4 | 0.00 | 0.00 | 0.00 | 42 | 1010.3 |
| 20260503183405 | 52 | 261 | 5.2 | 20.0 | 0.00 | 0.00 | 0.00 | 41 | 1010.4 |
| 20260503182404 | 53 | 291 | 4.3 | 10.4 | 0.00 | 0.00 | 0.00 | 43 | 1010.4 |
| 20260503181404 | 52 | 263 | 1.7 | 13.0 | 0.00 | 0.00 | 0.00 | 46 | 1010.4 |
| 20260503180404 | 52 | 262 | 5.2 | 14.8 | 0.00 | 0.00 | 0.00 | 43 | 1010.5 |
| 20260503174405 | 51 | 282 | 2.6 | 10.4 | 0.00 | 0.00 | 0.00 | 49 | 1010.5 |
| 20260503173404 | 49 | 270 | 3.5 | 13.9 | 0.00 | 0.00 | 0.00 | 50 | 1010.7 |
| 20260503172404 | 49 | 266 | 5.2 | 13.9 | 0.00 | 0.00 | 0.00 | 48 | 1010.9 |
| 20260503171404 | 49 | 269 | 2.6 | 10.4 | 0.00 | 0.00 | 0.00 | 48 | 1010.8 |
| 20260503170404 | 49 | 271 | 3.5 | 17.4 | 0.00 | 0.00 | 0.00 | 49 | 1010.8 |
| 20260503150404 | 47 | 242 | 2.6 | 13.9 | 0.00 | 0.00 | 0.00 | 56 | 1011.1 |
| 20260503131404 | 45 | 271 | 3.5 | 10.4 | 0.00 | 0.00 | 0.00 | 63 | 1011.6 |
| 20260503130404 | 45 | 355 | 1.7 | 6.1 | 0.00 | 0.00 | 0.00 | 67 | 1011.7 |
| 20260503110404 | 41 | 266 | 2.6 | 7.8 | 0.00 | 0.00 | 0.00 | 73 | 1011.0 |